Reflectivity
-20 -20 -20 -20 -20 -20 -20 -20 -20 -20 -20 -20 -20 -20 -20 -20 -20 -20 -20 -20 -20 -20 -20 -20 -20 -20 -20 -20 -20 -20 -20 -20 -20 -20 -20 -20 -20 -20 -20 -20 -20 -20 -20 -20 -20
-20 -20 -20 -20 -20 -20 -20 -20 -20 -20 -20 -20 -20 -20 -20 -20 -20 -20 -20 -20 -20 -20 -20 -20 -20 -20 -20 -20 -20 -20 -20 -20 -20 -20 -20 -20 -20 -20 -20 -20 -20 -20 -20 -20 -20
-20 -20 -20 -20 -20 -20 -20 -20 -20 -20 -20 -20 -20 -20 -20 -20 -20 -20 -20 -20 -20 -20 -20 -20 -20 -20 -20 -20 -20 -20 -20 -20 -20 -20 -20 -20 -19 -20 -20 -20 -20 -20 -20 -20 -20
-20 -20 -20 -20 -20 -20 -20 -20 -20 -20 -20 -20 -20 -20 -20 -20 -20 -20 -20 -20 -20 -20 -20 -20 -20 -20 -20 -20 -20 -20 -20 -20 -20 -20 -20 -20 -20 -20 -20 -20 -20 -20 -20 -20 -20
-20 -20 -20 -20 -20 -20 -20 -20 -20 -20 -20 -20 -20 -20 -20 -20 -20 -20 -20 -20 -20 -20 -20 -20 -20 -20 -20 -20 -20 -20 -20 -20 -20 -20 -20 -20 -20 -20 -20 -20 -20 -20 -20 -20 -20
-20 -20 -20 -20 -20 -20 -20 -20 -20 -20 -20 -20 -20 -20 -20 -20 -20 -20 -20 -20 -20 -20 -20 -20 -20 -20 -20 -20 -20 -20 -20 -20 -20 -20 -20 -20 -20 -20 -20 -20 -20 -20 -20 -20 -20
-20 -20 -20 -20 -20 -20 -20 -20 -20 -20 -20 -20 -20 -20 -20 -20 -20 -20 -20 -20 -20 -20 -20 -20 -20 -20 -20 -20 -20 -20 -20 -20 -20 -20 -20 -20 -20 -20 -20 -20 -20 -20 -20 -20 -20
-20 -20 -20 -20 -20 -20 -20 -20 -20 -20 -20 -20 3 -20 -20 -20 -20 -20 -20 -20 -20 -20 -20 -20 -20 -20 -20 -20 -20 -20 -20 -20 -20 -20 -20 -20 -17 -20 -20 -20 -20 -20 -20 -20 -20
-20 -20 -20 -20 -20 -20 -20 -20 -4 -20 -20 -19 -20 -20 -20 -20 -20 -20 -20 -20 -20 -20 -20 -20 -20 -20 -20 -20 -20 -20 -20 -20 -20 -20 -20 -20 -20 -20 -20 -20 -20 -20 -20 -20 -20
-20 -20 -20 -20 -20 -20 -20 -20 -14 -20 -20 -20 -20 -20 -20 -20 -20 -20 -20 -20 -20 -20 -20 -20 -20 -20 -20 -20 -20 -20 -20 -20 -20 -20 -20 -20 -20 -20 -20 -20 -20 -20 -20 -20 -20
-20 -20 -20 -20 -20 -20 -20 -20 -20 -20 -20 -20 -20 -20 -20 -20 -20 -20 -20 -20 -20 -20 -20 -20 -20 -20 -20 -20 -20 -20 -20 -20 -20 -20 -20 -20 -20 -20 -20 -20 -20 -20 -20 -20 -20
-20 -20 -20 -20 -20 -20 -20 -20 -20 -20 -20 -20 -20 -20 -20 -20 -20 -20 -20 -20 -20 -20 -20 -20 -20 -20 -20 -20 -20 -20 -20 -20 -20 -20 -20 -20 -20 -20 -20 -20 -20 -20 -20 -20 -20
-20 -20 -20 -20 -20 -20 -20 -20 -20 -20 -20 -20 -20 -20 -20 -20 -20 -20 -20 -20 -20 -20 -20 -20 -20 -20 -20 -20 -20 -20 -20 -20 -20 -20 -20 -20 -20 -20 -20 -20 -20 -20 -20 -20 -20
-20 -20 -20 -20 -20 -20 -20 -20 -20 -20 -20 -20 -20 -20 -20 -20 -20 -20 -20 -20 -20 -20 -20 -20 -20 -20 -20 -20 -20 -20 -20 -20 -20 -20 -20 -20 -20 -20 -20 -20 -20 -20 -20 -20 -20
-20 -20 -20 -20 -20 -20 -20 -20 -20 -20 -20 -20 -20 -20 -20 -20 -20 -20 -20 -20 -20 -20 -20 -20 -20 -20 -20 -20 -20 -20 -20 -20 -20 -20 -20 -20 -20 -20 -20 -20 -20 -20 -20 -20 -20
-20 -20 -20 -20 -20 -20 -20 -20 -20 -20 -20 -20 -20 -20 -20 -20 -20 -20 -20 -20 -20 -20 -20 -20 -20 -20 -20 -20 -20 -20 -20 -20 -20 -20 -20 -20 -20 -20 -20 -20 -20 -20 -20 -20 -20
-20 -20 -20 -20 -20 -20 -20 -20 -20 -20 -20 -20 -20 -20 -20 -20 -20 -20 -20 -20 -20 -20 -20 -20 -20 -20 -20 -20 -20 -20 -20 -20 -20 -20 -20 -20 -20 -20 -20 -20 -20 -20 -20 -20 -20
-20 -20 -20 -20 -20 -20 -20 -20 -20 -20 -20 -20 -20 -20 -20 -20 -20 -20 -20 -20 -20 -20 -20 -20 -20 -20 -20 -20 -20 -20 -20 -20 -20 -20 -20 -20 -20 -20 -20 -20 -20 -20 -20 -20 -20
-20 -20 -20 -20 -20 -20 -20 -20 -20 -20 -20 -20 -20 -20 -20 -20 -20 -20 -20 -20 -20 -20 -20 -20 -20 -20 -20 -20 -20 -20 -20 -20 -20 -20 -20 -20 -20 -20 -20 -20 -20 -20 -20 -20 -20
-20 -20 -20 -20 -20 -20 -20 -20 -20 -20 -20 -20 -20 -20 -20 -20 -20 -20 -20 -20 -20 -20 -20 -20 -20 -20 -20 -20 -20 -20 -20 -20 -20 -20 -20 -20 -20 -20 -20 -20 -20 -20 -20 -20 -20
-20 -20 -20 -20 -20 -20 -20 -20 -20 -20 -20 -20 -20 -20 -20 -20 -20 -20 -20 -20 -20 -20 -20 -20 -20 -20 -20 -20 -20 -20 -20 -20 -20 -20 -20 -20 -20 -20 -20 -20 -20 -20 -20 -20 -20
-20 -20 -20 -20 -20 -20 -20 -20 -20 -20 -20 -20 -20 -20 -20 -20 -20 -20 -20 -20 -20 -20 -20 -20 -20 -20 -20 -20 -20 -20 -20 -20 -20 -20 -20 -20 -20 -20 -20 -20 -20 -20 -20 -20 -20
-20 -20 -20 -20 -20 -20 -20 -20 -20 -20 -15 -2 16 23 5 -18 -20 -20 -20 -20 -20 -20 -20 -20 -20 -20 -20 -20 -20 -20 -20 -20 -20 -20 -20 -20 -20 -20 -20 -20 -20 -20 -20 -20 -20
-20 -20 -20 -20 -20 -12 -3 10 -2 -17 -20 -20 14 10 -8 -19 -20 -7 -20 -20 -20 -20 -20 -20 -20 -20 -20 -20 -20 -20 -20 -20 -20 -20 -20 -20 -20 -20 -20 -20 -20 -20 -20 -20 -20
-9 -20 -16 -20 -15 1 -4 5 5 8 -12 -19 14 18 17 8 3 -12 -4 -20 -20 -20 -20 -20 -20 -20 -20 -20 -20 -20 -20 -20 -20 -20 -20 -20 -20 -20 -20 -20 -20 -20 -20 -20 -20
-0 -1 6 3 -20 2 -20 9 18 19 -4 5 19 29 25 13 12 27 -18 -20 -20 -20 -20 -20 -20 -20 -20 -20 -20 -20 -20 -20 -20 -20 -20 -20 -20 -20 -20 -20 -20 -20 -20 -20 -20
22 -5 16 -7 6 6 8 9 12 9 -19 -20 -14 0 9 10 -5 -18 -20 -20 -20 -20 -20 -20 -20 -20 -20 -20 -20 -20 -20 -20 -20 -20 -20 -20 -20 -20 -20 -20 -20 -20 -20 -20 -20
Wind_Speed
21 21 21 21 21 21 21 20 19 19 18 18 17 16 15 16 16 11 16 9 11 16 11 17 16 15 16 12 6 4 7 8 5 4 10 12 11 7 7 13 7 5 9 22 24
22 22 22 22 22 22 22 22 21 21 19 17 16 15 15 14 14 19 12 11 12 21 19 21 22 20 15 13 8 9 9 2 5 1 5 12 8 11 9 14 11 8 17 25 26
23 23 24 25 24 24 23 23 23 22 20 17 15 14 13 14 10 9 6 18 18 24 20 19 19 19 15 10 11 8 6 1 3 3 4 11 9 8 9 12 14 15 23 27 25
23 24 25 26 27 27 26 25 25 23 20 17 13 12 11 9 6 7 1 20 21 24 19 20 21 21 15 12 13 9 10 6 5 5 1 5 8 9 10 6 14 17 24 27 26
23 24 25 26 28 27 26 26 25 24 21 16 11 7 9 10 12 9 14 16 22 22 23 21 22 21 17 14 11 16 8 7 9 8 6 6 9 7 10 6 16 20 24 25 23
24 23 24 25 26 27 27 27 26 26 21 15 9 7 7 13 2 5 8 22 23 23 24 21 20 18 11 8 15 9 14 9 8 8 5 9 8 9 11 9 18 21 24 24 24
24 24 24 25 27 29 28 27 27 23 17 10 13 10 9 18 0 7 14 19 23 24 25 21 13 20 7 11 9 11 10 11 12 11 7 8 11 13 15 15 18 21 21 23 23
25 26 26 27 28 30 28 26 22 14 4 12 15 10 10 5 11 7 14 16 19 21 19 19 9 20 9 3 8 14 15 14 16 14 8 14 11 16 17 17 19 21 21 22 23
24 26 27 28 29 31 28 22 8 10 11 17 11 8 7 6 11 14 15 16 18 18 13 11 12 17 20 13 13 13 14 19 11 16 9 15 9 17 19 19 19 21 22 22 22
25 26 28 29 30 30 27 13 4 9 8 5 1 7 8 5 8 19 15 13 20 18 15 15 14 17 17 18 17 17 18 16 16 15 13 16 15 6 19 19 19 20 21 22 23
26 27 27 29 29 30 17 6 6 9 7 11 1 6 2 2 8 16 20 22 16 21 17 24 20 27 26 23 20 13 12 18 15 9 13 16 14 12 14 18 19 20 21 22 23
24 26 28 30 29 25 13 7 8 7 18 17 22 24 17 2 9 18 24 18 21 23 22 19 28 23 22 22 21 22 16 19 13 6 9 16 15 13 13 19 20 20 21 22 21
24 26 28 29 27 10 10 9 9 12 10 13 13 15 13 20 13 22 30 24 25 28 30 23 13 24 24 23 23 23 23 18 15 11 14 13 15 15 11 15 18 20 21 20 22
23 25 28 32 10 10 4 14 12 7 9 8 8 6 12 13 15 18 28 27 20 29 27 24 15 26 21 25 25 25 23 18 16 12 13 16 14 19 20 17 18 20 20 23 24
25 25 25 14 9 7 15 14 11 6 9 8 7 9 9 19 7 25 25 29 22 18 28 20 25 23 27 24 24 20 17 18 21 18 17 21 11 16 12 18 19 20 22 22 25
23 25 24 3 5 10 15 14 5 9 11 4 6 6 8 16 9 13 22 28 22 23 24 26 15 24 23 18 23 10 18 14 15 16 20 23 21 16 17 18 18 20 21 23 23
24 23 12 6 10 16 14 6 9 11 6 6 8 5 10 10 18 13 26 32 22 24 28 24 28 19 17 23 20 23 21 11 15 18 20 19 22 18 9 17 20 19 21 22 23
23 23 2 4 12 13 10 8 15 4 9 18 13 18 13 4 13 17 20 27 31 26 17 20 23 29 26 25 22 29 25 13 20 15 18 18 17 20 21 20 7 18 17 20 22
26 5 4 9 12 8 9 9 9 14 15 15 20 11 11 5 7 9 21 23 31 29 26 22 26 26 21 21 24 25 28 24 18 8 10 14 20 16 13 18 23 20 17 20 21
9 5 6 15 10 8 7 6 9 11 16 17 17 6 9 5 9 8 15 7 15 34 6 16 18 20 26 26 26 19 23 23 18 22 20 13 18 13 18 23 19 22 23 19 20
6 5 10 17 9 6 5 8 14 15 12 11 15 15 14 12 9 7 2 8 9 1 6 16 14 22 22 27 26 23 19 23 17 17 14 14 13 16 16 17 22 21 20 21 20
7 5 9 11 3 4 7 11 11 14 14 13 15 17 15 12 12 4 3 10 10 8 13 11 10 13 25 23 25 27 24 27 15 23 20 16 9 8 4 12 18 18 18 20 18
7 5 4 11 6 6 9 12 11 10 10 10 10 16 15 15 7 3 2 5 11 11 4 1 14 15 15 19 24 26 27 24 25 16 21 19 5 9 7 4 2 8 7 10 13
6 5 2 2 0 10 12 10 12 8 4 8 5 12 15 18 12 5 3 3 9 9 11 8 12 21 18 15 17 26 27 29 28 21 17 19 14 13 8 4 7 7 7 5 7
2 4 5 7 7 11 9 12 12 8 9 9 2 6 9 9 9 13 6 10 4 6 6 9 12 7 15 3 5 11 28 30 30 26 27 18 20 18 11 10 7 7 6 3 4
6 5 2 9 7 11 7 8 10 11 12 11 9 12 12 8 13 10 12 7 5 5 6 7 3 6 15 11 9 11 14 16 20 27 27 26 23 13 10 11 19 16 15 13 14
2 5 3 5 9 7 7 8 12 14 8 5 13 16 11 9 12 15 15 15 15 11 9 7 6 8 14 12 11 17 21 20 19 19 18 23 16 15 19 16 14 15 12 14 15
Wind_Direction
352 349 347 344 340 337 334 332 329 326 324 323 323 322 321 320 300 214 240 251 193 166 206 169 186 183 185 195 218 207 242 234 131 195 116 145 134 125 99 138 164 158 148 143 154
350 347 344 341 337 335 332 328 324 322 318 317 317 317 317 320 289 260 237 177 174 166 182 179 179 180 192 201 200 228 265 103 43 36 157 161 165 143 152 152 146 134 114 144 156
348 345 342 338 336 333 328 323 320 317 312 309 309 310 312 305 276 250 81 169 181 177 187 191 178 183 204 198 196 189 260 114 183 197 258 161 176 149 146 174 163 151 147 156 160
346 343 339 336 333 330 325 321 318 313 307 301 297 299 304 272 263 53 131 168 179 189 173 185 179 193 205 202 198 237 239 267 116 129 277 203 155 173 177 92 154 153 160 160 168
345 342 338 334 329 325 322 318 313 307 299 289 278 276 264 226 247 103 116 153 175 190 179 182 191 199 210 198 195 228 239 223 230 255 268 209 194 189 181 136 145 151 165 170 174
344 340 338 333 327 324 323 319 312 306 295 269 237 207 233 248 355 212 169 160 176 187 186 187 195 210 239 213 212 182 238 252 259 243 221 193 174 187 165 153 148 160 170 177 181
342 340 337 330 328 325 325 320 314 304 293 227 193 211 234 243 359 203 183 185 180 193 189 191 199 202 216 213 210 242 235 218 235 229 175 207 168 200 143 164 160 168 175 181 187
342 337 334 330 330 326 327 324 315 319 57 164 173 200 253 172 246 226 189 192 188 203 207 196 189 220 223 355 209 218 223 230 210 197 183 206 208 183 161 172 172 172 177 183 190
341 337 332 331 331 328 327 324 330 62 103 137 162 232 250 114 203 202 188 185 185 198 214 183 211 222 219 235 219 202 211 215 164 190 174 209 226 154 174 183 179 180 179 185 189
341 337 332 331 332 330 322 303 176 158 165 233 95 221 228 227 168 188 188 175 174 163 185 188 201 212 217 213 216 202 219 204 210 187 203 207 244 164 177 201 190 189 184 187 192
340 335 334 330 332 328 321 233 250 188 239 263 248 272 195 37 146 190 176 166 166 179 184 192 201 207 203 215 229 236 217 224 204 166 219 232 237 232 190 203 202 188 196 194 197
337 333 331 329 331 322 298 51 54 320 298 266 247 254 249 338 218 178 181 174 173 185 187 183 216 211 215 208 223 230 227 228 222 177 242 251 237 235 193 209 210 195 201 203 192
336 334 331 329 322 315 38 52 339 320 263 281 226 236 219 209 225 179 193 196 189 190 196 199 204 213 205 212 213 224 223 223 232 203 237 256 252 241 213 204 211 209 205 203 200
335 333 332 328 297 340 44 344 334 308 272 204 205 218 194 193 220 205 204 195 198 202 198 222 197 195 201 215 211 220 222 243 242 230 237 197 253 220 215 201 208 210 206 198 205
332 332 331 332 324 354 328 322 316 235 271 95 134 125 152 201 107 187 190 209 201 199 201 201 214 195 211 209 207 230 220 220 236 246 255 249 248 253 205 214 208 210 205 207 197
330 330 331 176 257 344 327 318 235 227 238 127 125 188 184 214 221 155 183 212 227 216 210 223 205 218 219 213 219 212 228 224 231 236 239 237 244 244 239 212 220 210 211 207 204
329 324 318 304 334 327 316 277 239 245 50 50 1 342 295 217 214 184 194 197 201 207 213 211 225 217 211 214 209 203 199 197 213 221 238 233 233 235 248 235 214 222 206 208 202
326 311 133 302 320 321 297 249 255 320 13 340 318 297 241 191 227 200 195 202 216 207 191 206 213 203 200 211 200 198 208 213 212 219 226 215 239 235 232 235 262 229 210 203 202
310 347 301 348 327 307 280 250 288 14 350 321 311 280 197 202 304 221 216 214 207 217 229 198 228 180 200 200 201 194 217 223 252 215 266 230 216 244 250 228 222 215 217 211 200
320 317 15 346 326 276 266 312 346 345 335 313 298 346 316 348 282 227 187 24 248 212 245 258 221 190 194 198 216 211 201 215 225 240 243 231 237 233 212 218 222 219 216 209 206
290 295 25 339 278 287 350 342 323 329 327 308 306 306 295 304 295 277 67 43 346 340 266 253 237 186 183 202 197 200 207 217 225 224 226 237 240 224 230 215 219 218 215 215 210
318 323 13 324 319 347 356 333 315 321 333 302 282 276 294 303 290 275 132 22 351 297 222 222 237 220 206 200 213 204 205 204 214 209 239 270 242 119 241 228 218 222 217 219 214
338 313 20 321 13 354 338 318 312 328 338 345 315 341 309 275 274 284 38 50 1 359 357 87 222 210 203 204 200 220 198 215 217 234 214 220 218 123 129 113 204 237 230 225 230
309 314 13 298 160 347 335 313 325 333 329 338 342 299 313 264 239 275 307 25 343 2 327 265 253 229 218 204 205 211 213 214 212 224 230 217 236 194 211 212 169 190 205 196 207
316 34 7 324 338 331 306 292 301 339 342 328 80 6 351 290 266 257 307 307 264 12 326 323 231 238 257 322 274 265 216 211 221 222 228 234 222 236 242 247 295 318 303 207 201
308 331 209 296 266 292 295 303 304 344 332 317 326 352 328 324 310 321 327 311 321 326 330 338 226 269 251 232 234 242 232 243 243 234 233 241 249 249 215 249 269 266 282 279 278
304 299 270 268 288 294 301 318 309 311 302 243 324 317 305 299 296 301 294 284 284 292 303 288 289 247 231 215 251 248 229 226 231 233 240 240 249 260 262 259 260 279 277 280 285